Location: Newark
(42.8200°N, 13.1900°E)
Time: 22:50:07
(UTC+00:00)

STARLINK-1262 - Pass Details

Date: 07 April 2020
Orbit: 549 x 550 km, 53.0° (Epoch: 05 June)

Event Time Altitude Azimuth Distance (km) Brightness Sun altitude
Rises 03:46:43 0° 306° (NW) 2,736 6.8 -10.0°
Reaches altitude 10° 03:49:12 10° 318° (NW) 1,840 6.1 -9.6°
Maximum altitude 03:52:51 28° 19° (NNE) 1,051 5.5 -9.0°
Drops below altitude 10° 03:56:30 10° 80° (E) 1,837 8.0 -8.3°
Sets 03:58:59 0° 92° (E) 2,730 8.8 -7.9°
